Volver al catálogo

COSMOS 1703

ActivoNavegaciónPO
NORAD 16262·PAYLOAD·🇷🇺 Russia

Lanzado Nov 22, 1985 desde Plesetsk Cosmodrome

Loading…

Próximos Pases (próximas 24 horas)

TLE

ActualizadoSource: Space-Track

Época: Sep 14, 2026, 15:02 UTC

1 16262U 85108A   26257.62670975  .00026239  00000-0  33169-3 0  9990
2 16262  82.4540 122.4835 0005382  35.2459 324.9152 15.59362847231386

Sigue COSMOS 1703 en tiempo real con AllMySat

Download on the App Store